Tracking 35275 objects as of 8-Sep-2026
HD Live streaming from Space Station
objects crossing your sky now

STARLINK-34763

Track STARLINK-34763 now!
10-day predictions
STARLINK-34763 is classified as:


NORAD ID: 65206
Int'l Code: 2025-176J
Launch date: August 14, 2025
Source: United States (US)
Launch site: AIR FORCE EASTERN TEST RANGE (AFETR)
Your satellite tracking list
Your tracking list is empty




NASA's NSSDC Master Catalog

Two Line Element Set (TLE):
1 65206U 25176J   26250.59740799  .00030696  00000-0  91585-3 0  9990
2 65206  53.1594  24.0740 0000999  79.1007 281.0109 15.34402673 61010
Source of the keplerian elements: AFSPC